K5EBQ Weather Reports


Display with metric or nautical units.
time (UTC)temp
F
wind
direction
speed
MPH
gust
MPH
rain 1hr
in
rain 24hr
in
rain mn
in
humidity
%
barometer
mb
20260902094530 82 263 22.0 53.0 0.00 0.00 0.00 87 1011.0
20260902093029 82 234 18.0 85.0 0.00 0.00 0.00 86 1011.0
20260902091528 82 253 36.0 86.0 0.00 0.00 0.00 86 1011.0
20260902090032 83 225 18.0 40.0 0.00 0.00 0.00 86 1011.0
20260902084534 83 228 5.0 65.0 0.00 0.00 0.00 85 1011.0
20260902083023 83 232 20.0 73.0 0.00 0.00 0.00 84 1011.1
20260902081521 83 271 0.0 0.0 0.00 0.00 0.00 84 1011.0
20260902080022 82 229 0.0 0.0 0.00 0.00 0.00 83 1011.1
20260902074516 82 261 0.0 0.0 0.00 0.00 0.00 82 1011.1
20260902073015 81 261 0.0 0.0 0.00 0.00 0.00 81 1011.3
20260902071514 81 261 0.0 0.0 0.00 0.00 0.00 80 1011.2
20260902070021 82 261 0.0 0.0 0.00 0.00 0.00 80 1011.1
20260902064513 82 261 0.0 0.0 0.00 0.00 0.00 79 1011.0
20260902063032 82 261 0.0 0.0 0.00 0.00 0.00 79 1011.1
20260902061510 82 260 0.0 0.0 0.00 0.00 0.00 79 1010.9
20260902060009 82 261 0.0 0.0 0.00 0.00 0.00 79 1010.8
20260902054513 82 261 0.0 0.0 0.00 0.00 0.00 78 1011.0
20260902053008 82 26 0.0 0.0 0.00 0.00 0.00 79 1010.8
20260902051505 82 27 0.0 0.0 0.00 0.00 0.00 79 1011.0
20260902050006 82 26 0.0 0.0 0.00 0.00 0.00 79 1011.2
20260902044503 82 26 0.0 0.0 0.00 0.00 0.00 79 1011.3
20260902043004 82 27 0.0 0.0 0.00 0.00 0.00 79 1011.4
20260902041501 82 26 0.0 0.0 0.00 0.00 0.00 79 1011.3
20260902040100 82 26 0.0 0.0 0.00 0.00 0.00 78 1011.3
20260902034602 82 26 0.0 0.0 0.00 0.00 0.00 78 1011.5
20260902033059 82 26 0.0 0.0 0.00 0.00 0.00 78 1011.5
20260902031608 82 27 0.0 0.0 0.00 0.00 0.00 78 1011.4
20260902024602 83 26 0.0 0.0 0.00 0.00 0.00 77 1011.0
20260902023100 83 27 0.0 0.0 0.00 0.00 0.00 78 1010.8
20260902021600 83 26 0.0 0.0 0.00 0.00 0.00 77 1010.6
20260902020058 83 27 0.0 0.0 0.00 0.00 0.00 76 1010.4
20260902014555 84 26 0.0 0.0 0.00 0.00 0.00 76 1010.1
20260902013105 84 26 0.0 0.0 0.00 0.00 0.00 75 1009.9
20260902011555 84 26 0.0 0.0 0.00 0.00 0.00 76 1009.9
20260902010100 84 26 0.0 0.0 0.00 0.00 0.00 75 1010.0
20260902004553 84 26 0.0 0.0 0.00 0.00 0.00 75 1010.0
20260902003053 84 26 0.0 0.0 0.00 0.00 0.00 75 1010.2
20260902001554 85 26 0.0 0.0 0.00 0.00 0.00 74 1010.1
20260902000051 85 26 0.0 1.0 0.00 0.00 0.00 74 1009.9
20260901234549 84 19 0.0 0.0 0.00 0.00 0.00 75 1010.1
20260901233049 85 360 0.0 0.0 0.00 0.00 0.00 74 1010.3
20260901231556 85 329 31.0 59.0 0.00 0.00 0.00 73 1010.3
20260901224547 88 29 26.0 67.0 0.00 0.00 0.00 72 1010.6
20260901223046 91 61 0.0 0.0 0.00 0.00 0.00 66 1010.4
20260901221552 91 76 0.0 0.0 0.00 0.00 0.00 65 1010.2
20260901220042 91 53 0.0 0.0 0.00 0.00 0.00 64 1010.3
20260901214540 92 331 0.0 0.0 0.00 0.00 0.00 64 1010.6
20260901213035 91 331 0.0 0.0 0.00 0.00 0.00 63 1010.7
20260901211535 91 331 0.0 0.0 0.00 0.00 0.00 64 1010.7
20260901210034 91 331 0.0 0.0 0.00 0.00 0.00 63 1010.5
20260901204538 91 331 0.0 0.0 0.00 0.00 0.00 65 1010.5
20260901203033 91 331 0.0 0.0 0.00 0.00 0.00 65 1010.6
20260901201529 91 331 0.0 0.0 0.00 0.00 0.00 64 1011.1
20260901200025 91 329 0.0 0.0 0.00 0.00 0.00 64 1011.7
20260901194524 91 51 0.0 0.0 0.00 0.00 0.00 63 1011.9
20260901193024 91 81 0.0 0.0 0.00 0.00 0.00 60 1011.9
20260901191523 92 328 0.0 0.0 0.00 0.00 0.00 61 1011.9
20260901190026 92 318 0.0 0.0 0.00 0.00 0.00 61 1011.9
20260901184520 91 5 0.0 0.0 0.00 0.00 0.00 63 1012.0
20260901183024 91 341 0.0 0.0 0.00 0.00 0.00 62 1012.2
20260901181517 91 334 0.0 0.0 0.00 0.00 0.00 64 1012.4
20260901180020 91 9 0.0 0.0 0.00 0.00 0.00 65 1012.5
20260901174515 91 355 0.0 0.0 0.00 0.00 0.00 64 1012.8
20260901173012 90 334 0.0 0.0 0.00 0.00 0.00 67 1013.1
20260901171509 89 9 0.0 0.0 0.00 0.00 0.00 69 1013.4
20260901170012 89 19 0.0 0.0 0.00 0.00 0.00 70 1013.6
20260901164508 88 350 0.0 0.0 0.00 0.00 0.00 70 1013.7
20260901163008 88 341 0.0 0.0 0.00 0.00 0.00 71 1013.7
20260901161507 88 328 0.0 0.0 0.00 0.00 0.00 72 1013.7
20260901160011 89 319 0.0 0.0 0.00 0.00 0.00 72 1013.4
20260901154505 88 338 0.0 0.0 0.00 0.00 0.00 72 1013.5
20260901153004 88 309 0.0 0.0 0.00 0.00 0.00 73 1013.4
20260901151505 88 355 0.0 0.0 0.00 0.00 0.00 74 1013.4
20260901150007 89 345 0.0 0.0 0.00 0.00 0.00 73 1013.5
20260901144502 89 346 0.0 0.0 0.00 0.00 0.00 75 1013.5
20260901143107 87 329 0.0 0.0 0.00 0.00 0.00 77 1013.5
20260901141602 84 333 0.0 0.0 0.00 0.00 0.00 83 1013.6
20260901140050 83 336 0.0 0.0 0.00 0.00 0.00 84 1013.6
20260901134550 82 342 0.0 0.0 0.00 0.00 0.00 87 1013.9
20260901133049 81 340 0.0 0.0 0.00 0.00 0.00 89 1013.8
20260901131548 81 315 0.0 0.0 0.00 0.00 0.00 89 1013.4
20260901130043 80 205 0.0 0.0 0.00 0.00 0.00 90 1013.2
20260901124542 80 188 0.0 0.0 0.00 0.00 0.00 91 1013.1
20260901123041 80 161 0.0 0.0 0.00 0.00 0.00 91 1012.9
20260901121541 80 161 0.0 0.0 0.00 0.00 0.00 91 1012.7
20260901120043 80 161 0.0 0.0 0.00 0.00 0.00 90 1012.6
20260901114537 80 162 0.0 0.0 0.00 0.00 0.00 91 1012.4
20260901113037 80 162 0.0 0.0 0.00 0.00 0.00 91 1012.5
20260901111541 80 162 0.0 0.0 0.00 0.00 0.00 91 1012.6
20260901110037 80 162 0.0 0.0 0.00 0.00 0.00 90 1012.4
20260901104534 80 162 0.0 0.0 0.00 0.00 0.00 90 1012.4
20260901103034 80 162 0.0 0.0 0.00 0.00 0.00 90 1012.3
20260901101534 80 162 0.0 0.0 0.00 0.00 0.00 90 1012.2
20260901100032 80 162 0.0 0.0 0.00 0.00 0.00 90 1012.3